Wetbulb
40.31 34.31 30.68 33.85 36.55 39.13 38.62 37.14 36.00 39.11 44.29 41.56 40.63 41.29 44.35 46.45 46.80 44.31 45.62 45.37 50.87 53.94 56.49 56.38 57.76 57.90 58.54 58.03 57.79 58.24 58.99 58.74 58.08 58.50 58.08 58.43 58.31 58.97 59.35 60.78 60.74 60.05 62.01 61.36
37.26 33.01 37.91 40.40 40.51 39.46 38.32 36.10 35.29 40.51 44.39 42.18 39.66 39.97 43.90 45.66 45.43 45.55 46.95 46.89 48.35 53.57 54.10 54.96 56.53 56.92 58.01 57.30 57.49 57.93 58.33 58.83 58.67 58.04 58.30 57.67 58.05 59.22 59.58 59.89 60.49 60.20 60.20 61.30
34.87 38.44 42.13 40.66 39.24 37.98 37.08 36.04 36.73 38.07 42.39 41.83 39.31 37.50 40.64 45.63 45.27 45.46 46.59 48.76 48.45 53.75 53.99 53.69 55.52 55.87 57.56 57.44 57.34 58.31 58.12 58.60 58.55 58.58 57.48 56.36 57.40 58.11 58.11 58.51 58.87 59.55 59.94 59.31
39.07 42.48 41.23 38.62 37.53 39.22 33.77 40.94 41.48 40.26 38.42 31.41 40.12 29.42 38.97 43.72 43.69 44.92 44.92 45.59 46.92 53.24 55.35 54.29 55.00 55.22 56.68 57.48 57.80 57.78 57.76 58.07 58.23 58.40 57.22 55.72 55.29 55.12 56.96 57.68 58.64 58.58 59.30 58.53
36.44 39.39 38.99 38.38 38.17 40.09 36.80 42.51 40.62 40.64 36.17 34.66 36.62 32.37 37.48 42.91 41.80 43.57 45.29 44.67 46.00 53.52 54.96 54.07 54.52 55.87 57.05 58.16 57.75 56.94 56.96 57.12 57.17 57.83 57.13 56.26 55.84 56.16 56.87 57.38 57.40 57.78 58.15 57.53
38.89 42.92 41.55 40.20 43.24 43.18 42.40 40.55 40.63 40.17 36.76 28.86 35.69 35.46 35.27 38.89 42.17 44.43 46.55 47.03 46.27 53.21 54.79 54.98 55.34 56.45 56.68 57.30 57.67 56.36 55.66 55.86 56.78 57.63 57.08 56.20 55.46 55.38 55.11 55.54 55.72 56.20 57.09 56.68
35.70 37.96 40.33 43.27 38.60 41.70 40.38 37.30 31.01 29.60 28.94 26.76 38.72 36.26 38.02 43.43 45.66 46.17 46.85 47.89 47.01 53.55 54.24 53.39 53.32 54.36 56.22 56.02 56.20 56.25 55.76 55.38 55.96 56.71 56.75 56.29 55.50 55.30 54.81 55.30 55.08 55.41 55.40 56.19
27.29 26.65 37.62 41.79 39.18 36.98 37.85 37.30 31.87 24.81 25.95 29.58 39.41 31.98 38.00 46.01 48.30 48.54 48.20 47.60 46.85 53.10 53.88 53.13 53.99 54.55 55.76 56.04 56.29 56.43 55.92 55.31 55.84 56.84 56.74 56.85 56.13 55.60 54.26 54.36 55.28 55.12 55.77 56.27
28.05 30.74 39.17 41.09 42.32 40.66 36.87 34.30 39.60 33.48 34.15 30.11 34.37 38.23 44.60 47.01 47.52 48.03 47.33 47.36 46.85 52.39 53.07 53.15 54.28 55.03 55.66 55.98 55.88 55.92 55.36 55.49 55.38 55.98 56.91 56.75 56.28 55.26 54.22 53.93 54.58 55.33 56.03 56.70
33.84 28.23 37.24 40.88 43.48 43.18 40.45 41.95 32.53 34.34 26.54 26.33 32.70 35.50 37.71 42.92 45.55 46.81 46.90 47.09 47.52 49.53 53.00 53.95 54.51 54.86 55.74 56.43 56.29 55.94 55.60 55.46 55.77 56.44 56.42 56.81 56.77 56.75 55.98 54.66 53.83 54.84 55.54 55.75
36.49 33.45 32.72 39.56 37.48 36.29 38.14 36.83 37.34 36.42 34.53 30.00 28.40 34.58 43.84 43.19 45.18 45.26 46.52 48.28 48.75 49.64 49.48 53.88 54.72 55.12 55.56 56.27 55.83 55.92 55.70 55.52 55.69 56.41 56.14 56.46 56.53 56.78 56.83 55.85 54.75 54.55 55.17 55.55
36.58 34.01 29.46 33.62 41.55 42.69 40.83 37.86 37.72 33.86 31.47 33.80 31.86 33.36 44.84 46.20 47.31 47.33 47.82 48.87 49.96 50.91 52.25 53.65 53.91 53.77 55.04 54.98 55.26 55.34 56.09 56.18 56.28 56.34 56.30 56.02 56.72 56.90 56.20 56.46 56.57 56.10 55.13 55.52
36.28 32.43 27.41 30.29 36.17 39.69 37.28 39.58 39.34 38.66 37.49 34.12 31.31 33.18 46.55 47.66 47.70 47.68 48.17 48.79 50.00 51.12 51.82 52.30 52.73 53.36 53.53 54.59 55.65 55.55 55.20 54.99 56.54 56.71 56.23 55.60 55.73 56.45 56.41 56.46 56.96 57.30 57.00 56.24
39.38 33.11 30.74 27.20 32.23 36.49 35.95 37.43 38.81 38.05 33.42 32.72 34.62 37.74 42.29 44.67 46.09 47.25 47.36 48.74 49.52 50.56 50.81 49.98 49.64 50.49 50.98 52.32 52.67 53.45 54.83 55.74 55.96 56.40 56.19 55.54 55.32 55.72 56.08 56.89 57.26 57.13 57.32 57.00
36.32 28.78 33.23 35.14 35.85 35.90 37.01 37.23 38.02 36.89 37.04 34.33 37.13 38.51 42.73 45.27 46.69 47.70 47.64 48.04 48.79 48.60 47.15 47.08 46.82 46.44 46.87 48.24 49.03 51.94 52.54 53.49 56.23 56.43 56.22 55.82 55.71 55.88 56.23 56.23 56.63 57.30 57.20 57.14
36.91 29.35 31.89 31.14 36.07 36.09 33.71 37.19 38.80 37.62 38.84 38.28 39.14 38.77 45.76 48.11 48.45 47.20 46.95 46.73 46.81 46.39 45.92 44.30 43.15 42.59 41.99 42.94 45.27 47.40 47.92 48.50 49.56 49.66 52.63 54.12 56.22 56.24 55.71 55.81 55.88 56.26 56.29 56.55
33.77 31.39 28.98 25.75 32.43 32.53 30.09 35.55 38.41 38.37 40.82 40.12 37.05 41.76 45.67 45.67 46.02 45.79 44.51 45.32 44.97 43.77 42.34 41.10 40.45 39.34 39.17 39.74 42.50 42.30 43.78 45.04 44.62 45.52 46.85 46.23 47.62 48.62 53.66 56.11 55.96 55.63 55.65 56.45
32.43 31.27 30.18 26.29 29.10 22.57 35.14 39.10 40.18 40.01 41.89 43.14 42.41 43.77 45.79 43.51 43.92 43.93 43.77 42.93 42.45 40.91 38.97 37.81 37.11 36.57 36.89 38.24 39.62 41.02 41.09 41.25 41.30 41.83 42.25 42.76 43.13 44.05 45.55 48.17 50.10 56.27 56.24 55.82
35.56 31.15 24.45 23.40 24.22 29.16 33.48 39.23 39.31 39.01 38.41 43.14 42.90 45.68 44.65 43.18 42.12 39.65 41.47 41.76 40.62 38.83 37.08 35.96 35.51 34.75 34.87 35.27 38.54 38.97 37.79 37.34 36.86 36.71 37.73 38.53 39.10 40.73 41.67 42.56 44.06 45.65 47.50 56.40
34.10 32.60 26.99 26.73 21.98 20.94 34.09 40.56 44.19 44.12 34.39 43.40 45.77 44.64 43.46 43.43 35.45 35.95 38.78 38.22 37.86 37.13 35.80 33.90 33.39 32.99 32.42 33.43 36.57 36.31 35.12 34.64 33.66 33.25 33.69 35.33 35.95 37.31 36.37 38.74 39.93 41.24 43.65 45.57
26.91 27.26 25.17 24.52 22.97 27.41 37.39 42.65 44.89 32.64 35.21 44.77 46.19 45.91 43.68 39.15 38.51 36.99 36.61 34.85 34.91 34.38 33.76 33.76 32.15 30.62 30.93 32.55 34.59 33.72 33.90 32.02 32.31 31.98 31.53 31.59 32.68 33.58 33.48 34.96 36.28 37.08 35.64 34.36
27.68 26.47 23.85 25.04 23.02 21.31 40.05 42.73 35.56 41.31 43.39 44.23 43.42 41.84 38.73 37.44 36.24 34.50 33.26 31.95 31.36 31.32 31.79 32.20 30.65 29.67 30.56 31.63 32.54 31.70 31.54 32.32 31.53 30.56 29.34 29.19 30.44 31.05 31.17 31.90 32.99 33.37 32.61 31.01
28.33 32.80 29.02 28.57 27.79 39.05 42.12 42.19 44.16 43.30 40.44 41.09 40.40 40.31 38.27 35.19 33.17 31.87 30.08 29.33 29.00 29.07 29.56 30.21 29.39 28.83 29.23 30.22 31.13 30.26 30.91 31.45 30.18 28.78 28.09 28.26 28.13 28.74 29.16 28.74 29.42 29.84 30.53 29.80
36.23 38.74 34.72 34.27 35.55 38.48 39.68 40.83 40.57 39.97 38.14 39.36 38.67 37.77 35.71 32.15 30.86 29.01 28.56 28.14 27.42 27.47 27.33 28.46 28.13 27.13 27.23 28.84 29.24 30.98 31.78 31.07 29.62 28.27 27.67 27.20 26.76 26.65 27.68 28.28 28.36 27.81 27.72 27.90
34.70 36.04 36.39 35.79 37.39 36.91 37.47 38.06 38.66 37.91 36.79 35.24 35.15 33.80 31.61 30.12 28.06 27.51 26.50 26.22 26.21 25.95 26.18 26.23 25.94 26.00 26.32 27.24 27.45 28.56 30.46 30.42 28.75 28.56 27.84 26.51 25.56 25.12 25.53 26.53 27.14 27.09 28.57 28.68
34.57 32.22 32.64 31.92 35.06 36.30 36.72 36.97 36.49 34.12 33.89 33.33 30.59 28.66 28.88 27.76 25.80 25.42 24.52 25.07 24.27 23.32 22.99 22.07 22.71 23.19 24.59 25.53 25.22 25.92 28.04 29.00 27.57 26.22 25.19 24.86 24.27 23.89 23.68 23.38 23.72 28.01 27.78 28.60
MSLP
1008.09 1008.44 1008.49 1008.53 1008.38 1007.97 1007.69 1007.17 1006.42 1005.61 1004.67 1004.23 1003.45 1002.72 1001.37 1000.62 999.96 999.93 1000.07 1000.30 1000.81 1001.33 1001.91 1003.09 1004.00 1004.72 1005.78 1006.65 1006.91 1007.60 1008.32 1008.95 1009.62 1009.96 1010.23 1010.48 1010.72 1011.04 1011.21 1011.41 1011.62 1012.13 1012.30 1012.86
1008.99 1008.55 1008.35 1008.16 1008.07 1007.99 1007.58 1007.27 1006.59 1005.37 1004.47 1004.06 1003.37 1002.32 1001.17 999.93 999.00 998.76 999.11 999.65 1000.19 1001.12 1002.14 1003.14 1003.87 1004.62 1005.32 1006.10 1006.65 1007.36 1007.95 1008.65 1009.22 1009.74 1010.10 1010.49 1010.88 1011.16 1011.46 1011.72 1011.90 1012.28 1012.51 1012.72
1008.96 1008.41 1008.03 1008.07 1007.96 1007.94 1007.55 1007.36 1006.92 1006.09 1004.74 1004.28 1003.33 1002.17 1000.93 999.30 998.27 997.82 998.39 998.64 999.45 1000.17 1001.28 1002.62 1003.40 1004.07 1005.04 1005.67 1006.25 1006.87 1007.49 1008.19 1008.95 1009.47 1010.07 1010.66 1011.11 1011.48 1011.74 1011.85 1011.97 1011.97 1012.34 1012.94
1008.83 1008.45 1008.10 1008.03 1007.86 1007.89 1007.33 1007.31 1007.08 1006.56 1005.22 1004.59 1003.59 1002.76 1000.72 999.13 998.55 997.91 997.67 998.21 998.70 999.58 1000.18 1001.18 1002.58 1003.69 1004.44 1005.14 1006.07 1006.56 1007.09 1007.74 1008.63 1009.22 1009.76 1010.18 1010.65 1010.98 1011.20 1011.42 1011.82 1012.20 1012.58 1013.13
1008.60 1008.39 1008.11 1007.92 1007.37 1007.74 1007.58 1007.50 1007.43 1006.80 1005.98 1005.00 1003.87 1003.37 1000.14 999.19 998.35 997.52 997.08 997.28 997.84 998.37 999.05 1000.38 1001.18 1002.28 1003.65 1004.74 1005.63 1006.30 1006.84 1007.34 1008.13 1008.84 1009.34 1009.84 1010.36 1010.72 1011.02 1011.55 1011.89 1012.43 1013.05 1013.32
1008.27 1008.09 1007.98 1007.42 1007.10 1007.42 1008.12 1008.07 1007.56 1006.72 1006.05 1004.79 1003.51 1002.89 999.90 998.89 997.68 996.94 996.59 996.40 996.92 997.66 998.38 999.23 1000.70 1002.29 1003.59 1004.63 1005.50 1006.15 1006.67 1007.08 1007.63 1008.44 1008.98 1009.49 1009.95 1010.34 1010.80 1011.32 1011.87 1012.40 1012.69 1013.29
1007.82 1007.70 1007.39 1007.25 1007.31 1007.82 1007.94 1008.39 1007.62 1007.06 1006.09 1004.42 1002.93 1001.94 999.30 998.08 997.13 996.69 996.39 995.83 995.74 996.44 997.92 999.32 1000.52 1001.88 1003.30 1004.07 1005.03 1005.82 1006.38 1006.97 1007.28 1007.94 1008.63 1009.14 1009.62 1010.03 1010.48 1010.97 1011.32 1011.73 1012.25 1012.85
1007.55 1007.19 1006.93 1006.65 1006.67 1007.01 1007.31 1008.20 1007.76 1007.06 1006.17 1004.81 1002.82 1000.51 998.76 997.47 996.53 995.89 995.82 995.26 995.35 995.75 997.16 998.49 999.56 1000.79 1002.20 1003.27 1004.41 1005.24 1005.83 1006.51 1007.10 1007.51 1008.10 1008.75 1009.25 1009.64 1010.26 1010.71 1011.02 1011.27 1011.62 1012.15
1007.22 1006.70 1005.99 1005.89 1005.99 1006.89 1007.19 1007.82 1007.78 1007.81 1007.05 1005.87 1002.98 1000.74 998.83 997.66 997.00 995.95 995.68 995.46 995.54 995.87 996.92 997.98 999.32 1000.18 1001.46 1002.68 1003.66 1004.44 1005.27 1005.97 1006.68 1007.03 1007.71 1008.40 1008.99 1009.41 1009.83 1010.27 1010.67 1011.09 1011.50 1011.93
1006.91 1006.67 1005.65 1005.37 1005.86 1006.50 1006.49 1007.36 1008.34 1008.38 1007.46 1006.08 1003.23 1001.41 1000.06 998.53 998.61 996.32 996.51 996.70 996.61 997.16 997.40 997.96 998.69 999.64 1000.87 1002.11 1003.38 1004.40 1004.90 1005.29 1006.16 1006.73 1007.39 1008.00 1008.52 1009.00 1009.54 1010.03 1010.36 1010.77 1011.12 1011.54
1006.84 1007.03 1006.41 1005.85 1005.94 1005.91 1006.99 1007.53 1008.11 1008.01 1007.33 1006.15 1004.39 1003.02 1001.68 1000.78 1001.00 999.00 998.08 997.85 997.70 997.71 997.72 998.33 999.02 999.74 1000.88 1002.00 1002.94 1004.00 1004.85 1005.42 1005.97 1006.50 1006.94 1007.43 1007.91 1008.47 1009.12 1009.56 1010.02 1010.36 1010.82 1011.18
1007.13 1007.37 1006.95 1005.84 1004.97 1004.97 1006.12 1006.88 1007.67 1007.45 1006.94 1006.50 1005.73 1004.70 1003.58 1002.87 1001.07 1000.51 999.73 998.92 998.60 998.54 998.15 999.18 1000.18 1001.19 1002.16 1002.66 1002.94 1003.42 1004.32 1005.03 1005.54 1006.05 1006.55 1006.90 1007.30 1007.86 1008.43 1008.94 1009.43 1009.91 1010.19 1010.59
1007.41 1007.82 1007.64 1006.06 1005.64 1005.69 1005.86 1006.17 1006.90 1007.18 1006.99 1006.27 1005.91 1004.94 1004.29 1003.61 1002.64 1001.85 1001.39 1000.55 1000.35 1000.42 1000.55 1001.24 1001.84 1002.62 1003.39 1003.92 1004.36 1004.88 1005.50 1005.79 1005.68 1005.71 1006.05 1006.50 1006.80 1007.19 1007.63 1008.10 1008.63 1009.02 1009.40 1009.69
1007.57 1008.21 1008.26 1007.70 1007.06 1006.90 1006.63 1006.10 1006.26 1006.59 1006.11 1005.71 1005.17 1004.45 1004.22 1004.37 1003.94 1003.07 1002.90 1002.13 1001.68 1002.17 1002.74 1003.40 1004.05 1004.60 1004.87 1005.23 1005.38 1005.44 1005.59 1005.64 1006.04 1006.58 1006.75 1006.64 1006.36 1006.34 1006.75 1007.17 1007.60 1008.12 1008.54 1008.87
1008.35 1008.88 1008.80 1008.35 1007.51 1006.90 1006.06 1005.61 1005.56 1005.70 1005.48 1005.25 1004.65 1004.48 1004.13 1004.28 1004.37 1004.42 1004.22 1003.65 1002.96 1003.71 1004.55 1005.61 1006.38 1006.57 1006.60 1006.48 1006.48 1006.13 1006.13 1006.21 1006.09 1005.92 1006.32 1006.73 1006.95 1006.85 1007.07 1007.42 1007.42 1007.32 1007.39 1007.74
1009.07 1009.47 1009.27 1008.65 1007.62 1006.89 1005.75 1004.98 1004.62 1005.07 1004.95 1004.88 1004.77 1004.40 1004.83 1004.24 1004.66 1004.75 1005.07 1004.78 1004.66 1004.97 1006.11 1007.18 1008.56 1008.32 1008.28 1008.26 1007.91 1007.59 1007.40 1007.38 1007.04 1007.01 1006.97 1006.88 1006.70 1006.65 1006.82 1006.82 1006.71 1006.78 1006.99 1007.04
1009.60 1009.83 1010.01 1009.46 1008.15 1006.94 1005.42 1004.03 1003.54 1003.66 1003.69 1003.98 1004.10 1004.16 1004.72 1004.97 1005.00 1005.53 1005.66 1005.94 1006.61 1007.59 1008.68 1009.72 1010.16 1010.40 1010.34 1010.16 1009.57 1009.27 1009.18 1008.79 1008.37 1008.17 1007.90 1007.83 1007.67 1007.33 1006.83 1006.49 1006.32 1006.25 1006.29 1006.47
1009.78 1010.23 1010.45 1010.14 1008.78 1006.91 1004.20 1003.07 1002.19 1002.16 1002.87 1003.53 1004.11 1004.36 1004.49 1005.41 1006.29 1006.86 1007.18 1007.32 1008.40 1008.86 1009.61 1010.68 1011.48 1011.63 1011.55 1011.18 1010.69 1010.18 1010.17 1009.96 1009.73 1009.53 1009.29 1008.98 1008.64 1008.32 1007.86 1007.21 1006.62 1005.78 1005.81 1005.73
1009.32 1010.09 1010.56 1010.33 1009.32 1006.99 1004.20 1002.82 1002.35 1002.11 1003.56 1003.87 1004.10 1004.25 1005.36 1006.15 1007.23 1008.59 1009.01 1009.22 1009.78 1010.59 1011.61 1012.16 1012.36 1012.34 1012.04 1011.72 1011.11 1010.96 1010.97 1011.03 1010.93 1010.86 1010.72 1010.34 1009.81 1009.08 1008.58 1008.02 1007.44 1006.91 1006.26 1005.10
1009.35 1009.90 1010.50 1010.54 1009.43 1007.07 1004.14 1003.19 1002.60 1002.78 1003.82 1004.02 1003.84 1004.83 1005.45 1005.95 1008.10 1010.10 1010.50 1011.04 1011.50 1012.37 1012.85 1013.05 1013.08 1012.96 1012.44 1012.31 1011.99 1011.83 1011.73 1011.69 1011.77 1011.98 1011.94 1011.51 1010.94 1010.23 1009.75 1009.03 1008.29 1007.67 1006.92 1006.08
1009.73 1010.16 1010.30 1010.31 1009.42 1006.96 1004.54 1003.60 1003.57 1003.97 1005.17 1004.32 1004.29 1004.97 1005.92 1007.44 1008.96 1011.15 1011.83 1012.40 1012.85 1013.06 1013.09 1013.56 1013.76 1013.72 1013.93 1013.72 1013.13 1012.67 1012.57 1012.60 1013.09 1013.07 1012.83 1012.39 1011.84 1011.16 1010.84 1010.22 1009.59 1008.79 1008.20 1008.10
1009.58 1010.02 1010.16 1009.88 1009.26 1007.73 1004.95 1004.03 1004.15 1005.55 1005.65 1005.77 1005.73 1006.60 1007.71 1009.20 1010.86 1012.16 1013.06 1013.59 1013.79 1013.97 1014.39 1014.71 1014.76 1015.04 1015.10 1014.61 1014.00 1013.66 1013.39 1013.76 1013.88 1013.83 1013.59 1013.16 1012.68 1012.18 1011.65 1011.16 1010.77 1010.16 1009.49 1009.36
1009.76 1009.73 1009.40 1008.60 1007.63 1007.05 1005.83 1005.10 1005.11 1005.38 1007.11 1007.51 1007.54 1008.28 1009.30 1010.86 1012.40 1013.45 1014.00 1014.73 1015.34 1015.58 1015.58 1015.75 1015.70 1015.95 1016.04 1015.54 1015.13 1014.72 1014.65 1014.48 1014.42 1014.37 1014.28 1014.12 1013.79 1013.22 1012.79 1012.20 1011.95 1011.53 1011.12 1010.75
1009.48 1009.28 1009.17 1008.50 1007.28 1007.45 1007.52 1007.68 1007.44 1007.57 1008.19 1009.16 1009.57 1010.00 1011.39 1012.74 1013.69 1014.12 1014.72 1015.40 1016.02 1016.49 1016.71 1016.92 1016.97 1016.85 1016.92 1016.76 1016.25 1015.89 1015.65 1015.40 1015.20 1015.10 1015.22 1015.08 1014.69 1014.35 1013.91 1013.56 1013.37 1013.24 1012.96 1012.59
1010.80 1010.29 1009.16 1008.78 1009.00 1008.93 1009.42 1009.72 1009.63 1009.53 1009.99 1010.87 1011.58 1011.99 1012.70 1013.36 1014.50 1015.25 1015.96 1016.76 1017.45 1017.81 1018.15 1018.20 1018.05 1017.98 1017.86 1017.63 1017.13 1016.90 1016.52 1016.16 1016.03 1015.98 1016.04 1015.97 1015.83 1015.61 1015.38 1015.16 1014.99 1014.85 1015.00 1014.71
1011.80 1011.04 1009.74 1009.32 1009.89 1009.83 1010.80 1011.19 1011.56 1011.31 1011.62 1012.26 1012.87 1013.69 1014.48 1015.10 1016.17 1016.93 1017.58 1018.25 1018.70 1019.13 1019.39 1019.17 1019.05 1018.88 1018.66 1018.34 1018.20 1018.01 1017.57 1017.08 1016.99 1016.87 1017.11 1017.24 1017.17 1017.00 1016.74 1016.57 1016.53 1016.51 1016.40 1016.40
Wind_Speed
3 3 7 9 8 6 5 8 9 11 12 5 8 15 18 17 18 15 10 9 16 19 14 12 14 14 14 12 14 13 11 8 7 5 5 3 4 3 3 3 7 7 10 11
1 9 9 6 7 2 4 9 13 13 15 7 8 15 17 19 13 14 14 11 14 11 12 14 14 14 16 16 15 14 14 12 8 7 4 3 3 3 5 4 7 7 9 11
7 5 7 6 8 9 5 7 9 16 18 11 9 11 8 14 7 6 8 11 10 19 19 16 17 16 14 16 16 16 16 16 10 8 5 4 3 2 3 5 5 5 6 6
6 3 5 5 8 11 14 6 8 16 9 6 5 6 7 10 11 8 8 9 11 17 19 19 18 16 17 16 14 15 15 15 11 11 8 10 7 6 5 5 5 5 5 4
4 4 2 7 13 10 8 8 14 13 3 3 4 4 7 7 13 12 9 9 10 19 22 21 23 20 16 16 15 13 14 14 13 12 10 8 8 6 5 6 9 10 8 5
5 0 4 4 6 12 7 4 10 6 3 5 6 4 7 5 6 9 6 9 12 18 20 22 15 15 14 13 15 12 13 13 13 12 12 12 11 9 8 8 8 7 9 6
2 8 3 2 2 6 7 0 3 5 5 6 7 8 14 8 13 11 11 16 12 21 18 17 18 17 16 17 18 15 14 12 14 14 13 12 11 11 11 11 10 12 9 9
3 5 10 8 7 6 11 6 2 5 3 2 5 6 6 7 13 14 12 11 8 19 18 20 20 19 18 19 20 18 18 17 16 14 14 12 13 9 8 10 8 10 10 11
3 4 2 9 7 11 5 7 5 2 0 1 5 5 7 10 15 19 13 6 11 17 18 20 18 18 17 18 19 19 19 16 17 16 12 13 11 12 10 11 8 8 9 9
1 3 6 6 4 7 6 1 3 3 3 4 5 2 4 11 17 8 14 9 11 6 10 16 18 17 14 15 14 14 15 17 16 15 12 11 11 12 11 9 12 11 9 9
1 4 5 6 6 9 4 4 3 2 4 1 2 2 10 15 13 11 12 13 12 9 4 9 11 11 11 13 13 13 13 14 15 16 15 14 13 12 10 11 11 12 11 11
1 3 3 7 6 11 10 8 5 3 6 5 1 3 11 15 17 15 12 14 18 19 14 10 10 8 5 4 10 14 13 13 14 14 13 13 13 12 13 12 12 13 14 14
3 0 4 5 6 4 4 9 12 8 1 4 3 3 2 14 10 15 12 15 17 21 22 20 19 16 12 8 6 5 2 3 9 13 14 13 14 14 14 15 14 13 14 15
4 1 2 3 1 1 6 5 5 11 3 3 7 3 7 10 10 13 11 12 19 19 19 18 16 14 14 13 12 12 8 1 5 6 8 11 14 15 15 15 16 15 15 15
3 2 1 5 11 11 12 12 12 15 16 7 3 3 9 4 4 6 7 11 18 20 19 17 14 13 13 14 12 12 12 12 7 7 9 9 8 10 11 12 13 15 15 16
3 2 3 5 4 6 13 13 13 12 17 17 17 13 4 9 6 9 6 10 17 19 18 18 16 16 16 14 13 13 13 13 12 13 11 6 5 10 11 12 13 15 16 16
1 1 3 5 7 12 6 7 11 7 15 18 8 4 9 8 8 7 12 13 15 16 16 14 14 13 13 12 11 12 11 11 13 13 13 13 12 11 7 10 13 15 16 14
4 3 2 4 6 4 4 17 13 14 12 8 5 10 14 18 12 13 12 15 14 15 16 15 11 11 10 9 10 10 11 12 12 13 13 13 13 11 11 11 10 12 13 16
9 5 1 3 2 10 15 7 8 3 4 3 15 8 20 21 17 15 14 15 16 15 12 11 10 11 9 11 12 12 12 12 12 14 13 13 13 13 13 13 12 11 10 12
4 3 4 2 2 4 3 6 5 6 3 6 15 19 19 11 6 7 12 14 16 15 12 11 11 10 13 14 12 11 13 13 15 14 13 12 12 11 12 12 12 11 10 9
3 1 9 5 4 8 8 5 3 2 1 3 12 12 11 8 11 14 13 15 14 13 14 13 12 13 13 12 12 13 13 15 13 12 12 13 13 12 12 11 9 9 9 11
5 5 4 4 4 9 6 6 9 6 8 8 14 16 20 17 16 15 14 14 14 13 13 12 11 12 11 12 11 13 13 11 10 11 12 14 13 11 11 11 10 10 10 12
2 5 3 7 7 2 8 5 12 18 13 8 12 16 16 16 14 12 13 14 13 12 10 10 10 11 11 11 11 11 10 9 10 12 13 13 14 13 13 13 12 10 10 9
3 5 5 3 4 9 12 14 13 15 16 15 12 15 14 15 12 14 12 11 11 10 10 9 11 12 12 11 12 10 9 8 9 11 11 10 12 15 14 11 12 11 10 10
3 7 5 4 11 16 14 15 10 15 17 18 16 15 15 14 14 12 11 11 10 10 10 9 11 11 12 11 12 12 11 9 9 10 10 10 9 11 13 15 13 12 15 14
4 4 5 3 6 10 8 11 11 15 14 13 16 16 14 13 13 12 10 10 10 10 8 9 11 11 11 11 13 12 11 10 9 10 9 8 7 8 8 8 11 28 29 30
Wind_Direction
223 145 213 225 236 234 295 306 285 285 289 301 270 276 281 277 294 242 224 211 192 194 170 158 158 151 148 155 149 150 149 154 148 154 155 148 160 151 129 149 151 149 164 164
272 234 224 237 262 262 265 291 299 294 277 259 283 281 285 279 258 223 203 207 187 173 152 159 162 159 166 161 157 156 158 163 164 167 159 128 137 169 183 165 167 161 154 162
193 246 204 230 261 271 242 262 295 294 286 278 281 277 276 299 271 196 204 211 172 175 166 168 170 171 162 165 165 163 163 162 164 159 137 127 113 107 159 177 180 166 139 142
234 291 212 221 226 236 230 242 299 310 298 243 87 289 280 296 284 274 215 207 183 182 176 171 169 172 173 170 164 162 160 159 161 156 167 165 172 176 196 179 178 163 161 147
247 190 197 231 229 223 240 274 303 289 287 295 183 239 263 295 284 287 277 226 181 182 175 177 182 174 168 163 166 165 163 160 160 168 171 166 175 174 152 172 171 188 178 172
227 191 205 235 244 227 223 296 265 251 204 253 214 203 264 250 239 271 270 270 180 185 181 183 168 155 159 159 166 165 166 167 162 170 172 175 173 171 163 167 175 179 180 180
246 219 220 145 154 202 196 46 222 223 213 236 189 203 248 275 273 259 278 281 211 180 172 162 161 160 164 166 169 172 171 172 169 172 175 181 182 177 178 177 179 176 177 193
184 312 173 185 183 190 189 181 260 211 219 279 300 219 238 234 277 260 259 278 162 163 165 169 169 170 170 166 171 174 178 180 181 176 178 181 187 189 186 188 189 191 190 196
196 262 103 167 162 204 196 207 224 12 155 291 257 285 251 359 303 276 259 234 161 165 167 170 171 176 167 166 175 177 176 178 184 179 173 184 187 188 192 189 188 194 197 198
265 295 258 156 139 223 153 94 129 143 241 222 240 252 353 30 334 69 61 54 56 51 171 170 177 175 166 168 169 172 177 175 180 175 184 186 191 196 196 190 197 196 201 203
142 170 283 132 211 198 152 151 223 238 227 283 286 44 10 36 305 6 78 64 60 49 159 171 180 167 155 157 164 171 175 172 176 184 187 188 193 197 196 198 201 205 203 203
169 137 258 236 187 165 206 187 183 221 179 200 69 264 318 316 13 5 26 61 57 50 48 84 74 68 68 145 168 170 173 173 179 184 188 193 190 198 203 207 203 207 211 210
171 90 313 323 57 99 196 197 198 217 304 216 213 223 241 314 1 6 43 55 60 57 57 60 60 60 59 63 78 72 15 236 192 186 189 193 193 195 202 205 209 208 210 213
70 143 241 258 296 26 287 276 278 207 210 224 217 288 158 284 3 359 25 54 67 63 59 56 50 51 51 46 41 39 35 192 181 211 214 214 207 202 204 204 205 209 210 215
92 205 263 283 283 279 283 244 231 251 224 232 149 250 292 199 183 316 22 44 69 70 59 53 45 44 41 41 31 28 27 16 10 212 216 234 234 223 219 225 223 217 210 213
352 287 354 285 289 308 296 274 214 229 250 234 261 262 7 123 111 121 40 59 68 65 62 56 41 37 37 32 28 24 22 13 21 29 30 18 268 221 225 227 222 222 225 223
95 93 48 283 330 313 277 236 234 222 246 213 226 250 137 110 105 108 102 78 71 72 71 66 50 47 37 24 32 38 24 21 27 20 19 18 9 10 322 246 229 231 231 229
167 160 147 267 325 254 282 311 266 229 194 161 237 237 134 98 82 69 61 78 76 62 52 53 51 43 36 29 36 46 34 34 34 28 19 7 358 353 345 341 331 257 233 229
190 158 200 208 238 302 305 17 1 180 159 243 220 144 123 115 96 71 62 67 77 73 64 51 39 34 34 30 32 38 36 36 33 27 18 7 357 350 349 345 340 331 310 259
160 137 150 149 229 259 218 354 6 19 120 275 154 141 139 152 95 90 71 71 74 80 71 55 40 32 29 16 21 33 35 34 30 21 15 11 3 360 354 347 345 341 343 10
115 77 217 220 253 276 286 284 41 241 142 238 151 151 122 90 98 111 90 72 65 62 54 45 40 38 27 15 25 35 32 35 26 22 20 18 17 14 7 357 1 12 35 41
183 172 197 181 227 262 283 295 162 122 67 110 97 104 98 98 97 92 82 71 58 51 49 48 51 41 28 22 29 35 34 31 31 35 33 29 22 21 18 19 15 25 47 53
235 200 252 184 202 15 6 72 97 109 84 53 93 99 98 99 99 97 88 77 70 61 58 53 54 49 34 28 26 35 28 32 46 50 44 41 37 34 32 32 27 28 33 54
256 183 237 304 278 90 68 55 78 84 87 100 85 96 101 112 106 90 81 75 70 65 62 63 64 54 43 32 31 30 37 42 49 54 50 47 49 48 45 47 44 39 32 41
10 311 260 164 101 82 63 70 68 84 80 81 75 83 88 92 83 88 85 81 81 77 69 65 67 59 53 43 39 29 28 41 52 52 52 49 50 51 57 54 48 51 47 46
341 288 264 92 88 93 83 71 64 77 87 87 90 80 76 86 97 95 86 84 80 75 64 61 59 58 47 49 46 34 29 41 55 59 51 42 42 43 49 55 59 53 56 51